#timestamp,LO_Frequency,Hit,StdDev 
1512500415.1,286046992.9,N
1512500416.0,286046992.9,N
1512500435.8,286046990.1,N
1512500455.6,286046991.2,N
1512500475.5,286046990.2,N
1512500495.3,286046993.6,N
1512500515.1,286046995.0,N
1512500535.9,286046998.6,N
1512500555.7,286047007.1,N
1512500575.6,286047003.0,N
1512500595.4,286047005.5,N
1512500615.2,286047005.1,N
1512500635.1,286047002.5,N
1512500636.0,286047002.5,N
1512500655.8,286047005.3,N
1512500675.6,286047007.9,N
1512500695.5,286047006.3,N
1512500715.3,286047010.6,N
1512500735.2,286047015.3,N
1512500755.9,286047013.3,N
1512500775.7,286047012.4,N
1512500795.6,286047006.2,N
1512500815.4,286047004.5,N
1512500835.2,286047005.7,N
1512500855.1,286047002.7,N
1512500856.0,286047002.7,N
1512500875.8,286046999.4,N
1512500895.7,286047004.4,N
1512500915.5,286047003.1,N
1512500935.3,286047008.2,N
1512500955.2,286047006.8,N
1512500975.0,286047008.8,N
1512500975.9,286047008.8,N
1512500995.7,286047007.3,N
1512501015.6,286047009.6,N
1512501035.4,286047007.0,N
1512501055.3,286047011.8,N
1512501075.1,286047010.9,N
1512501076.0,286047010.9,N
1512501095.8,286047013.8,Y
1512501115.7,286047005.6,P
1512501135.5,286046999.1,N
1512501155.4,286047004.1,N
1512501175.2,286047000.4,N
1512501195.0,286047002.8,N
1512501195.9,286047002.8,N
1512501215.8,286047001.8,N
1512501235.6,286047002.7,N
1512501255.4,286047003.4,N
1512501275.3,286047006.9,Y
1512501295.1,286047000.8,P
1512501315.9,286047003.9,P
1512501335.7,286046999.4,N
1512501355.5,286046994.9,N
1512501375.4,286046999.4,N
1512501395.2,286046999.1,N
1512501415.0,286046996.7,N
1512501415.9,286046996.7,N
1512501435.8,286047005.4,N
1512501455.6,286047006.1,N
1512501475.5,286047004.7,N
1512501495.3,286047005.9,N
1512501515.1,286047003.0,N
1512501535.9,286047001.3,N
1512501555.7,286047000.5,N
1512501575.5,286047000.0,N
1512501595.4,286047002.5,N
1512501615.2,286047002.0,N
1512501635.1,286046995.5,N
1512501636.0,286046995.5,N
1512501655.8,286046997.6,N
1512501675.6,286047003.7,N
1512501695.5,286047004.4,N
1512501715.3,286046999.3,N
1512501735.1,286046999.6,N
1512501755.9,286046999.8,N
1512501775.7,286046997.5,N
1512501795.6,286046997.1,N
1512501815.4,286046998.5,N
1512501835.2,286046998.4,N
1512501855.1,286047000.7,N
1512501856.0,286047000.7,N
1512501875.8,286047003.6,N
1512501895.6,286047001.8,N
1512501915.5,286047003.6,N
1512501935.3,286047003.3,N
1512501955.2,286047007.6,N
1512501975.9,286047007.7,N
1512501995.7,286047008.4,N
1512502015.6,286047010.6,Y
1512502035.4,286047001.3,P
1512502055.2,286046998.7,P
1512502075.1,286046997.3,N
1512502076.0,286046997.3,N
1512502095.8,286046995.7,N
1512502115.7,286046997.7,N
1512502135.5,286046997.3,N
1512502155.3,286046999.1,N
1512502175.2,286046997.4,N
1512502195.0,286046999.2,N
1512502195.9,286046999.2,N
1512502215.8,286046997.5,N
1512502235.6,286047000.3,N
1512502255.4,286046997.7,N
1512502275.3,286046996.7,N
1512502295.1,286046996.7,N
1512502296.0,286046996.7,N
1512502315.8,286046995.7,N
1512502335.7,286046993.6,Y
1512502355.5,286046998.7,P
1512502375.4,286047000.8,N
1512502395.2,286047001.1,N
1512502415.0,286046995.0,Y
1512502415.9,286046995.0,P
1512502435.8,286046995.6,N
1512502455.6,286046997.7,N
1512502475.4,286047000.4,N
1512502495.3,286047001.7,N
1512502515.1,286047000.2,N
1512502535.9,286046998.7,N
1512502555.7,286047002.8,N
1512502575.5,286046998.2,N
1512502595.4,286046999.4,N
1512502615.2,286047000.3,N
1512502635.0,286046998.9,N
1512502635.9,286046998.9,N
1512502655.8,286046998.2,N
1512502675.6,286047001.6,N
1512502695.5,286047004.0,N
1512502715.3,286046999.8,N
1512502735.1,286047000.3,N
1512502755.9,286047003.3,N
1512502775.7,286047008.1,Y
1512502795.6,286047003.2,P
1512502815.4,286047003.3,N
1512502835.2,286047007.0,P
1512502855.1,286047008.6,Y
1512502856.0,286047008.6,P
1512502875.8,286046998.2,N
1512502895.7,286046999.0,N
1512502915.5,286047002.8,N
1512502935.3,286047000.9,N
1512502955.2,286047000.6,N
1512502975.0,286047002.5,N
1512502975.9,286047002.5,N
1512502995.7,286047001.1,N
1512503015.6,286046997.3,N
1512503035.4,286046994.3,N
1512503055.3,286046995.4,N
1512503075.1,286046998.7,N
1512503076.0,286046998.7,N
1512503095.8,286046995.9,N
1512503115.7,286046997.7,N
1512503135.5,286046995.0,N
1512503155.3,286047002.4,N
1512503175.2,286047002.7,N
1512503195.0,286047002.1,N
1512503195.9,286047002.1,N
1512503215.8,286046998.2,N
1512503235.6,286047000.7,N
1512503255.4,286047005.3,N
1512503275.3,286047008.9,N
1512503295.1,286047004.6,N
1512503315.8,286047007.0,N
1512503335.7,286047009.0,N
1512503355.5,286047007.4,N
1512503375.4,286047008.4,N
1512503395.2,286047007.1,N
1512503415.0,286047007.5,N
1512503415.9,286047007.5,N
1512503435.8,286047006.1,N
1512503455.6,286047006.7,N
1512503475.4,286047010.8,N
1512503495.3,286047008.0,N
1512503515.1,286047004.5,N
1512503535.9,286047005.3,N
1512503555.7,286047001.1,N
1512503575.5,286047003.6,N
1512503595.4,286047004.2,N
1512503615.2,286047005.7,N
1512503635.0,286047003.9,N
1512503636.0,286047003.9,N
1512503655.8,286047001.7,N
1512503675.6,286047000.4,N
1512503695.5,286046997.1,N
1512503715.3,286046999.2,N
1512503735.1,286046996.8,N
1512503755.9,286046995.1,N
1512503775.7,286046997.3,N
1512503795.6,286046995.2,N
1512503815.4,286046994.9,N
1512503835.2,286046994.9,N
1512503855.1,286046997.5,N
1512503856.0,286046997.5,N
1512503875.8,286046999.5,N
1512503895.6,286046997.3,N
1512503915.5,286047002.4,N
1512503935.3,286047003.9,N
1512503955.2,286047003.4,N
1512503975.9,286046996.6,N
1512503995.7,286046997.9,N
